TimePDT,TemperatureF,Dew PointF,Humidity,Sea Level PressureIn,VisibilityMPH,Wind Direction,Wind SpeedMPH,Gust SpeedMPH,PrecipitationIn,Events,Conditions,WindDirDegrees,DateUTC
12:58 AM,43.9,33.6,67,30.03,10.0,SW,15.0,-,N/A,,Clear,220,2013-03-15 07:58:00
1:58 AM,42.1,35.8,78,30.05,10.0,SW,12.7,-,N/A,,Clear,220,2013-03-15 08:58:00
2:15 AM,42.8,35.6,76,30.03,10.0,SW,11.5,-,N/A,,Clear,230,2013-03-15 09:15:00
2:16 AM,42.8,35.6,76,30.03,10.0,SW,11.5,-,N/A,,Clear,230,2013-03-15 09:16:00
2:58 AM,42.6,35.1,75,30.06,10.0,South,8.1,-,0.00,,Clear,190,2013-03-15 09:58:00
3:58 AM,40.3,35.2,82,30.07,10.0,SSW,6.9,-,N/A,,Clear,200,2013-03-15 10:58:00
4:58 AM,38.8,34.9,86,30.10,10.0,South,9.2,-,N/A,,Clear,190,2013-03-15 11:58:00
5:11 AM,37.4,33.8,87,30.07,10.0,South,5.8,-,N/A,,Clear,170,2013-03-15 12:11:00
5:22 AM,37.4,33.8,87,30.07,10.0,South,8.1,-,N/A,,Clear,170,2013-03-15 12:22:00
5:50 AM,37.4,33.8,87,30.08,10.0,South,12.7,-,N/A,,Clear,190,2013-03-15 12:50:00
5:58 AM,37.8,34.0,86,30.11,10.0,South,12.7,-,0.00,,Clear,190,2013-03-15 12:58:00
6:01 AM,37.4,33.8,87,30.08,10.0,South,13.8,-,N/A,,Clear,190,2013-03-15 13:01:00
6:24 AM,37.4,33.8,87,30.07,10.0,South,11.5,-,N/A,,Clear,190,2013-03-15 13:24:00
6:40 AM,37.4,33.8,87,30.07,10.0,South,8.1,-,N/A,,Clear,180,2013-03-15 13:40:00
6:58 AM,37.9,34.3,87,30.11,10.0,South,5.8,-,0.00,,Clear,170,2013-03-15 13:58:00
7:53 AM,39.2,37.4,93,30.11,10.0,South,10.4,-,N/A,,Partly Cloudy,180,2013-03-15 14:53:00
7:58 AM,38.7,36.9,93,30.14,10.0,South,10.4,-,N/A,,Partly Cloudy,180,2013-03-15 14:58:00
8:00 AM,39.2,37.4,93,30.10,10.0,South,11.5,-,N/A,,Partly Cloudy,180,2013-03-15 15:00:00
8:14 AM,39.2,37.4,93,30.11,10.0,South,11.5,-,N/A,,Mostly Cloudy,180,2013-03-15 15:14:00
8:18 AM,39.2,37.4,93,30.11,10.0,South,11.5,-,N/A,,Mostly Cloudy,170,2013-03-15 15:18:00
8:29 AM,39.2,39.2,100,30.11,10.0,South,10.4,-,N/A,,Overcast,180,2013-03-15 15:29:00
8:44 AM,41.0,39.2,93,30.12,10.0,South,11.5,-,N/A,,Mostly Cloudy,180,2013-03-15 15:44:00
8:45 AM,41.0,39.2,93,30.12,10.0,South,11.5,-,N/A,,Mostly Cloudy,180,2013-03-15 15:45:00
8:54 AM,42.8,39.2,87,30.12,10.0,South,10.4,-,N/A,,Mostly Cloudy,180,2013-03-15 15:54:00
8:58 AM,42.8,39.2,87,30.15,10.0,South,10.4,-,0.00,,Scattered Clouds,180,2013-03-15 15:58:00
9:10 AM,42.8,39.2,87,30.12,10.0,South,8.1,-,N/A,,Partly Cloudy,180,2013-03-15 16:10:00
9:58 AM,44.6,40.3,85,30.16,10.0,South,12.7,-,0.00,,Clear,190,2013-03-15 16:58:00
10:58 AM,47.8,41.5,79,30.15,10.0,SSW,10.4,-,N/A,,Clear,200,2013-03-15 17:58:00
11:58 AM,50.0,42.8,76,30.16,10.0,SW,10.4,17.3,N/A,,Scattered Clouds,220,2013-03-15 18:58:00
12:04 PM,51.8,42.8,71,30.14,10.0,SSW,9.2,-,N/A,,Mostly Cloudy,210,2013-03-15 19:04:00
12:05 PM,51.8,42.8,71,30.13,10.0,SW,10.4,-,N/A,,Scattered Clouds,230,2013-03-15 19:05:00
12:06 PM,51.8,42.8,71,30.13,10.0,SW,10.4,-,N/A,,Mostly Cloudy,230,2013-03-15 19:06:00
12:14 PM,50.0,41.0,71,30.13,10.0,SW,11.5,-,N/A,,Scattered Clouds,220,2013-03-15 19:14:00
12:15 PM,50.0,41.0,71,30.13,10.0,SW,11.5,-,N/A,,Mostly Cloudy,230,2013-03-15 19:15:00
12:58 PM,53.2,41.5,65,30.13,10.0,SW,13.8,-,N/A,,Overcast,230,2013-03-15 19:58:00
1:05 PM,55.4,41.0,58,30.11,10.0,SSW,11.5,-,N/A,,Mostly Cloudy,210,2013-03-15 20:05:00
1:30 PM,55.4,39.2,54,30.10,10.0,SW,15.0,20.7,N/A,,Light Drizzle,230,2013-03-15 20:30:00
1:32 PM,55.4,39.2,54,30.10,10.0,SW,15.0,20.7,N/A,,Mostly Cloudy,230,2013-03-15 20:32:00
1:58 PM,53.8,37.8,55,30.12,10.0,WSW,17.3,-,0.00,,Scattered Clouds,250,2013-03-15 20:58:00
2:58 PM,55.0,35.8,48,30.10,10.0,West,13.8,-,N/A,,Mostly Cloudy,260,2013-03-15 21:58:00
3:58 PM,56.3,35.8,46,30.10,10.0,SW,16.1,-,N/A,,Scattered Clouds,230,2013-03-15 22:58:00
4:58 PM,54.5,37.8,53,30.09,10.0,SW,13.8,-,N/A,,Mostly Cloudy,220,2013-03-15 23:58:00
5:49 PM,53.6,37.4,54,30.05,10.0,SW,15.0,-,N/A,Rain,Light Rain,230,2013-03-16 00:49:00
5:58 PM,52.7,37.2,56,30.08,10.0,SW,11.5,-,0.00,Rain,Light Rain,230,2013-03-16 00:58:00
5:59 PM,53.6,37.4,54,30.05,10.0,SW,9.2,-,N/A,,Overcast,230,2013-03-16 00:59:00
6:58 PM,50.2,36.0,58,30.09,10.0,SSW,9.2,-,0.00,,Partly Cloudy,210,2013-03-16 01:58:00
7:58 PM,47.8,35.6,63,30.09,10.0,SW,6.9,-,N/A,,Clear,220,2013-03-16 02:58:00
8:58 PM,46.2,36.1,68,30.09,10.0,SSW,4.6,-,N/A,,Clear,200,2013-03-16 03:58:00
9:58 PM,45.0,37.2,74,30.09,10.0,South,9.2,-,N/A,,Clear,190,2013-03-16 04:58:00
10:58 PM,43.7,37.6,79,30.07,10.0,South,5.8,-,N/A,,Clear,180,2013-03-16 05:58:00
11:58 PM,41.9,37.9,86,30.06,10.0,SSW,5.8,-,N/A,,Clear,210,2013-03-16 06:58:00